Regional Weather Roundup
Issued by NWS

Home | Current Version | Previous Version | Text Only | Print | Product List | Glossary Off
Versions: 1 2 3 4 5 6 7 8 9 10 11 12 13 14 15 16 17 18 19 20 21 22 23 24 25 26 27

000
ASUS45 KBOU 240410
RWRCO

WEATHER ROUNDUP FOR COLORADO
NATIONAL WEATHER SERVICE DENVER/BOULDER CO
900 PM MST TUE JAN 23 2018

NOTE: "FAIR" INDICATES FEW OR NO CLOUDS BELOW 12000 FEET WITH NO
SIGNIFICANT WEATHER AND/OR OBSTRUCTIONS TO VISIBILITY.

COZ001>005-013-030-031-240500-
...NORTHWEST COLORADO...

CITY           SKY/WX    TMP DP  RH WIND       PRES   REMARKS
CRAIG          FAIR       5   2  87 CALM      30.35S
HAYDEN         FAIR      12   8  84 E6        30.35S WCI   3
MEEKER         FAIR      12   8  84 E3        30.34S
RABBIT EARS PA FAIR     N/A N/A N/A W5        30.23S
STEAMBOAT SPGS FAIR      11   9  91 CALM      30.33F
WALDEN         FAIR      16   7  67 S9        30.27S WCI   4
$$

COZ006>008-011-240500-
...WEST CENTRAL VALLEYS...

CITY           SKY/WX    TMP DP  RH WIND       PRES   REMARKS
GRAND JUNCTION FAIR      22  16  78 E6        30.38S WCI  14
MONTROSE       FAIR      20  10  65 SE8       30.40R WCI  10
EAGLE          FAIR      19  10  68 SE6       30.38R WCI  11
RIFLE          FAIR      25  18  74 CALM      30.38R
DELTA          FAIR      24  15  66 CALM      30.40R
NUCLA          FAIR      27  16  63 E9        30.41R WCI  17
$$

COZ017>023-064>068-240500-
...SOUTHWEST COLORADO...

CITY           SKY/WX    TMP DP  RH WIND       PRES   REMARKS
DURANGO        FAIR      19  14  81 N7        30.35R WCI  10
CORTEZ         FAIR      21  16  81 NE8       30.36R WCI  11
PAGOSA SPRINGS FAIR      15  14  94 CALM      30.35R
TELLURIDE      FAIR      18   9  65 E6        30.35S WCI  10
WOLF CREEK PAS FAIR      16   1  53 SW9       30.36R WCI   4
$$

COZ009-010-012-014-032>034-037-058>063-240500-
...CENTRAL COLORADO...

CITY           SKY/WX    TMP DP  RH WIND       PRES   REMARKS
ASPEN          FAIR      15   6  67 SW10      30.34R WCI   2
BUENA VISTA    FAIR      20   4  49 W5        30.29R WCI  13
COPPER MTN     NOT AVBL
BERTHOUD PASS  FAIR       3  -8  60 NW38G49   30.14S HAZE    WCI -24
COTTONWOOD PAS FAIR      28   5  37 NW7G23    30.26R WCI  21
GUNNISON       FAIR       8   3  80 E5        30.37R WCI   0
KREMMLING      FAIR      14   9  79 CALM      30.34S
LEADVILLE      FAIR       4  -1  80 E9        30.27S WCI -10
MONARCH PASS   FAIR       9   5  85 W36       30.33S WCI -16
SALIDA         FAIR      25   8  48 NW3       30.37S
SUNLIGHT       FAIR      10   5  79 S5        30.34S WCI   2
WILKERSON PASS FAIR      12   0  57 W8G16     30.23S WCI   1
$$

COZ069>075-240500-
...SAN LUIS VALLEY/SANGRE DE CRISTO MOUNTAINS...

CITY           SKY/WX    TMP DP  RH WIND       PRES   REMARKS
ALAMOSA        FAIR      11   4  73 SW3       30.32R
DEL NORTE      FAIR      12  -1  56 W12       30.32S WCI  -2
LA VETA PASS   FAIR      18   3  53 S30G39      N/A  WCI  -2
SAGUACHE       FAIR      16   7  67 N7        30.33S WCI   6
$$

COZ035-036-038>040-240500-
...NORTHERN COLORADO FRONT RANGE...

CITY           SKY/WX    TMP DP  RH WIND       PRES   REMARKS
DENVER INTL AP FAIR      16   7  67 S14       30.26S WCI   2
DMNS CITY PARK NOT AVBL
AURORA         CLEAR     21  11  63 SE12      30.25F WCI   9
FRONT RANGE AP NOT AVBL
ERIE MUNI ARPT FAIR      26  11  53 CALM      30.33R
BOULDER MUN AP FAIR      27  14  59 N5        30.26S WCI  21
CENTENNIAL     FAIR      24  10  55 S15       30.24S WCI  11
BROOMFIELD     PTCLDY    28  12  50 SE6       30.25S WCI  22
FORT COLLINS   FAIR      22  14  71 SW7       30.29R WCI  13
LONGMONT       FAIR      19  11  70 NW7       30.30R WCI  10
$$

COZ041-046-047-076>085-087-088-240500-
...PIKES PEAK/PALMER DIVIDE AND SOUTHERN FOOTHILLS...

CITY           SKY/WX    TMP DP  RH WIND       PRES   REMARKS
COLO. SPRINGS  FAIR      26  10  50 E5        30.28S WCI  20
A. F. ACADEMY  FAIR      17   6  62 N7        30.26S WCI   8
SCHRIEVER AFB  FAIR      22  10  59 N3        30.28S
CHEYENNE MTN   FAIR      25   6  44 CALM      30.21R
ELLICOTT         N/A    N/A N/A N/A E9        30.26S
FALCON         FAIR      19   6  59 CALM      30.27S
FORT CARSON    FAIR      24   6  46 E6        30.26S WCI  17
LIMON          FAIR      12   9  87 CALM      30.29F
MONUMENT HILL  FAIR      14   3  62 S10       30.25S WCI   1
CANON CITY     FAIR      28  14  54 W7        30.27S WCI  21
WALSENBURG     NOT AVBL
TRINIDAD       FAIR      22  10  60 CALM      30.27R
$$

COZ042>045-048>051-090-091-240500-
...NORTHEAST COLORADO...

CITY           SKY/WX    TMP DP  RH WIND       PRES   REMARKS
GREELEY ARPT   FAIR      19  15  84 CALM      30.29R
AKRON          FAIR      16  10  77 SW8       30.28S WCI   5
BURLINGTON     FAIR      13   9  84 W9        30.31S WCI   1
WRAY           FAIR      18  14  86 W10       30.32R WCI   6
YUMA           FAIR      18  10  73 W10       30.30R WCI   6
STERLING       FAIR      18  14  86 S6        30.29R WCI   9
HOLYOKE        FAIR      19  14  79 W8        30.30R WCI   9
FORT MORGAN    FAIR      24  14  67 S3        30.30R
$$

COZ086-089-092>099-240500-
...SOUTHEAST COLORADO...

CITY           SKY/WX    TMP DP  RH WIND       PRES   REMARKS
PUEBLO         FAIR      25  11  55 NE7       30.28S WCI  17
LA JUNTA       FAIR      27  15  61 E6        30.30S WCI  20
LAMAR          FAIR      22  14  71 MISG      30.32R
SPRINGFIELD      N/A     16   9  74 SW3       30.31R
$$




USA.gov is the U.S. government's official web portal to all federal, state and local government web resources and services.